• In Spain
  • List of Countries
  • For 7 days
  • Water Temperature
  • Satellite Maps
  • Weather Map
  • Weather Widgets
  • user-avatar
    Login

    Hourly Weather Trzemietowko

    Today, 19 September, Wednesday

    Time Temperature Precipitation Wind Pressure Humidity
    00:00 +18°C° 0 mm 3 mps 751 mmHg 76%
    01:00 +18°C° 0 mm 3 mps 750 mmHg 80%
    02:00 +18°C° 0 mm 3 mps 751 mmHg 81%
    03:00 +17°C° 0 mm 3 mps 751 mmHg 82%
    04:00 +17°C° 0 mm 3 mps 751 mmHg 83%
    05:00 +18°C° 0 mm 3 mps 751 mmHg 81%
    06:00 +18°C° 0 mm 3 mps 751 mmHg 79%
    07:00 +18°C° 0 mm 2 mps 751 mmHg 77%
    08:00 +20°C° 0 mm 3 mps 752 mmHg 69%
    09:00 +22°C° 0 mm 3 mps 752 mmHg 62%
    10:00 +26°C° 0 mm 3 mps 752 mmHg 54%
    11:00 +27°C° 0 mm 3 mps 752 mmHg 50%
    12:00 +28°C° 0 mm 3 mps 752 mmHg 47%
    13:00 +29°C° 0 mm 3 mps 752 mmHg 43%
    14:00 +29°C° 0 mm 3 mps 752 mmHg 44%
    15:00 +29°C° 0 mm 3 mps 752 mmHg 44%
    16:00 +28°C° 0 mm 3 mps 752 mmHg 45%
    17:00 +26°C° 0 mm 2 mps 753 mmHg 50%
    18:00 +24°C° 0 mm 2 mps 753 mmHg 55%
    19:00 +22°C° 0 mm 1 mps 753 mmHg 60%
    20:00 +22°C° 0 mm 1 mps 753 mmHg 61%
    21:00 +21°C° 0 mm 1 mps 753 mmHg 63%
    22:00 +21°C° 0 mm 1 mps 753 mmHg 64%
    23:00 +21°C° 0 mm 1 mps 753 mmHg 65%

    Tomorrow, 20 September, Thursday

    Time Temperature Precipitation Wind Pressure Humidity
    00:00 +20°C° 0 mm 1 mps 753 mmHg 66%
    01:00 +19°C° 0 mm 2 mps 753 mmHg 67%
    02:00 +19°C° 0 mm 2 mps 753 mmHg 69%
    03:00 +19°C° 0 mm 2 mps 753 mmHg 71%
    04:00 +19°C° 0 mm 2 mps 752 mmHg 73%
    05:00 +19°C° 0 mm 3 mps 753 mmHg 73%
    06:00 +19°C° 0 mm 3 mps 753 mmHg 73%
    07:00 +20°C° 0 mm 3 mps 753 mmHg 73%
    08:00 +22°C° 0 mm 3 mps 753 mmHg 68%
    09:00 +25°C° 0 mm 3 mps 753 mmHg 62%
    10:00 +26°C° 0 mm 3 mps 753 mmHg 56%
    11:00 +27°C° 0 mm 3 mps 753 mmHg 53%
    12:00 +28°C° 0 mm 4 mps 753 mmHg 51%
    13:00 +29°C° 0 mm 4 mps 753 mmHg 48%
    14:00 +29°C° 0 mm 4 mps 753 mmHg 48%
    15:00 +28°C° 0 mm 3 mps 752 mmHg 49%
    16:00 +28°C° 0 mm 3 mps 752 mmHg 49%
    17:00 +26°C° 0 mm 2 mps 752 mmHg 55%
    18:00 +24°C° 0 mm 2 mps 752 mmHg 60%
    19:00 +23°C° 0 mm 1 mps 752 mmHg 66%
    20:00 +22°C° 0 mm 1 mps 752 mmHg 67%
    21:00 +22°C° 0 mm 1 mps 752 mmHg 69%
    22:00 +21°C° 0 mm 1 mps 752 mmHg 70%
    23:00 +20°C° 0 mm 2 mps 752 mmHg 71%

    Day after tomorrow, 21 September, Friday

    Time Temperature Precipitation Wind Pressure Humidity
    00:00 +20°C° 0 mm 2 mps 751 mmHg 72%
    01:00 +19°C° 0 mm 2 mps 751 mmHg 73%
    02:00 +19°C° 0 mm 3 mps 751 mmHg 73%
    03:00 +19°C° 0 mm 3 mps 750 mmHg 73%
    04:00 +19°C° 0 mm 3 mps 750 mmHg 73%
    05:00 +19°C° 0 mm 3 mps 750 mmHg 71%
    06:00 +20°C° 0 mm 4 mps 750 mmHg 69%
    07:00 +20°C° 0 mm 4 mps 750 mmHg 67%
    08:00 +22°C° 0 mm 5 mps 749 mmHg 61%
    09:00 +24°C° 0 mm 6 mps 749 mmHg 55%
    10:00 +27°C° 0 mm 6 mps 749 mmHg 49%
    11:00 +28°C° 0 mm 7 mps 748 mmHg 46%
    12:00 +29°C° 0 mm 7 mps 747 mmHg 42%
    13:00 +31°C° 0 mm 8 mps 747 mmHg 39%
    14:00 +30°C° 0 mm 7 mps 746 mmHg 39%
    15:00 +29°C° 0 mm 7 mps 745 mmHg 39%
    16:00 +29°C° 0 mm 6 mps 745 mmHg 40%
    17:00 +28°C° 0 mm 6 mps 744 mmHg 42%
    18:00 +27°C° 0 mm 5 mps 744 mmHg 44%
    19:00 +26°C° 0 mm 5 mps 744 mmHg 47%
    20:00 +24°C° 0 mm 6 mps 744 mmHg 51%
    21:00 +23°C° 0 mm 6 mps 744 mmHg 54%
    22:00 +22°C° 0 mm 6 mps 745 mmHg 58%
    23:00 +20°C° 0.9 mm 5 mps 745 mmHg 67%

    22 September, Saturday

    Time Temperature Precipitation Wind Pressure Humidity
    00:00 +17°C° 0.9 mm 5 mps 745 mmHg 75%
    01:00 +17°C° 0.9 mm 4 mps 746 mmHg 83%
    02:00 +14°C° 1.3 mm 4 mps 746 mmHg 82%
    03:00 +13°C° 1.3 mm 5 mps 747 mmHg 81%
    04:00 +12°C° 1.3 mm 5 mps 748 mmHg 81%
    05:00 +12°C° 0.1 mm 5 mps 749 mmHg 79%
    06:00 +12°C° 0.1 mm 5 mps 750 mmHg 78%
    07:00 +11°C° 0.1 mm 6 mps 750 mmHg 77%
    08:00 +11°C° 0 mm 6 mps 751 mmHg 70%
    09:00 +13°C° 0 mm 6 mps 752 mmHg 63%
    10:00 +14°C° 0 mm 6 mps 752 mmHg 57%
    11:00 +14°C° 0 mm 6 mps 752 mmHg 52%
    12:00 +15°C° 0 mm 7 mps 752 mmHg 48%
    13:00 +16°C° 0 mm 7 mps 752 mmHg 43%
    14:00 +16°C° 0 mm 6 mps 752 mmHg 45%
    15:00 +16°C° 0 mm 6 mps 752 mmHg 47%
    16:00 +15°C° 0 mm 6 mps 753 mmHg 49%
    17:00 +14°C° 0 mm 5 mps 753 mmHg 54%
    18:00 +13°C° 0 mm 4 mps 753 mmHg 58%
    19:00 +12°C° 0 mm 3 mps 754 mmHg 63%
    20:00 +12°C° 0 mm 3 mps 754 mmHg 64%
    21:00 +11°C° 0 mm 3 mps 754 mmHg 65%
    22:00 +11°C° 0 mm 3 mps 754 mmHg 66%
    23:00 +11°C° 0 mm 3 mps 754 mmHg 67%

    23 September, Sunday

    Time Temperature Precipitation Wind Pressure Humidity
    00:00 +10°C° 0 mm 3 mps 754 mmHg 68%
    01:00 +10°C° 0 mm 3 mps 754 mmHg 68%
    02:00 +9°C° 0 mm 3 mps 754 mmHg 71%
    03:00 +9°C° 0 mm 3 mps 754 mmHg 73%
    04:00 +8°C° 0 mm 3 mps 754 mmHg 76%
    05:00 +9°C° 0 mm 3 mps 754 mmHg 76%
    06:00 +9°C° 0 mm 3 mps 754 mmHg 75%
    07:00 +9°C° 0 mm 3 mps 754 mmHg 75%
    08:00 +10°C° 0 mm 3 mps 754 mmHg 68%
    09:00 +12°C° 0 mm 3 mps 754 mmHg 61%
    10:00 +14°C° 0 mm 3 mps 754 mmHg 54%
    11:00 +14°C° 0 mm 3 mps 754 mmHg 49%
    12:00 +16°C° 0 mm 3 mps 753 mmHg 45%
    13:00 +17°C° 0 mm 3 mps 753 mmHg 40%
    14:00 +17°C° 0 mm 3 mps 752 mmHg 41%
    15:00 +17°C° 0 mm 3 mps 751 mmHg 43%
    16:00 +16°C° 0 mm 3 mps 751 mmHg 44%
    17:00 +16°C° 0 mm 3 mps 750 mmHg 46%
    18:00 +14°C° 0 mm 4 mps 749 mmHg 48%
    19:00 +14°C° 0 mm 4 mps 749 mmHg 50%
    20:00 +14°C° 0.2 mm 4 mps 748 mmHg 51%
    21:00 +14°C° 0.2 mm 5 mps 747 mmHg 53%
    22:00 +13°C° 0.2 mm 5 mps 746 mmHg 54%
    23:00 +13°C° 0.3 mm 6 mps 745 mmHg 57%

    24 September, Monday

    Time Temperature Precipitation Wind Pressure Humidity
    00:00 +13°C° 0.3 mm 6 mps 745 mmHg 61%
    01:00 +13°C° 0.3 mm 6 mps 744 mmHg 64%
    02:00 +11°C° 1.4 mm 6 mps 743 mmHg 71%
    03:00 +11°C° 1.4 mm 6 mps 743 mmHg 78%
    04:00 +10°C° 1.4 mm 7 mps 742 mmHg 84%
    05:00 +10°C° 0.6 mm 6 mps 741 mmHg 85%
    06:00 +10°C° 0.6 mm 6 mps 741 mmHg 86%
    07:00 +10°C° 0.6 mm 6 mps 741 mmHg 87%
    08:00 +10°C° 0.8 mm 5 mps 741 mmHg 86%
    09:00 +12°C° 0.8 mm 5 mps 741 mmHg 85%
    10:00 +12°C° 0.8 mm 5 mps 741 mmHg 83%
    11:00 +13°C° 0.2 mm 5 mps 740 mmHg 79%
    12:00 +13°C° 0.2 mm 6 mps 740 mmHg 75%
    13:00 +14°C° 0.2 mm 6 mps 740 mmHg 70%
    14:00 +14°C° 0.1 mm 5 mps 740 mmHg 72%
    15:00 +13°C° 0.1 mm 5 mps 739 mmHg 74%
    16:00 +13°C° 0.1 mm 4 mps 739 mmHg 75%
    17:00 +13°C° 0.5 mm 4 mps 739 mmHg 79%
    18:00 +12°C° 0.5 mm 3 mps 739 mmHg 82%
    19:00 +12°C° 0.5 mm 3 mps 739 mmHg 85%
    20:00 +12°C° 0.1 mm 4 mps 739 mmHg 87%
    21:00 +11°C° 0.1 mm 4 mps 740 mmHg 88%
    22:00 +11°C° 0.1 mm 4 mps 740 mmHg 89%
    23:00 +10°C° 0.1 mm 5 mps 740 mmHg 88%
    Show more